| time (UTC) | temp C | wind direction | speed KPH | gust KPH | rain 1hr cm | rain 24hr cm | rain mn cm | humidity % | barometer mb |
| 20260902102503 | 20 | 181 | 0.0 | 9.7 | 0.00 | 0.25 | 0.00 | 100 | 1020.0 |
| 20260902102004 | 20 | 184 | 0.0 | 1.6 | 0.00 | 0.25 | 0.00 | 100 | 1020.0 |
| 20260902101503 | 20 | 184 | 0.0 | 1.6 | 0.00 | 0.25 | 0.00 | 100 | 1019.9 |
| 20260902101025 | 20 | 184 | 0.0 | 1.6 | 0.00 | 0.25 | 0.00 | 100 | 1019.8 |
| 20260902100503 | 20 | 184 | 0.0 | 1.6 | 0.00 | 0.25 | 0.00 | 100 | 1019.7 |
| 20260902100004 | 21 | 184 | 0.0 | 1.6 | 0.00 | 0.25 | 0.00 | 100 | 1019.6 |
| 20260902095503 | 21 | 184 | 0.0 | 1.6 | 0.00 | 0.25 | 0.00 | 100 | 1019.7 |
| 20260902095003 | 21 | 184 | 0.0 | 4.8 | 0.00 | 0.25 | 0.00 | 100 | 1019.5 |
| 20260902094503 | 21 | 184 | 0.0 | 4.8 | 0.00 | 0.25 | 0.00 | 100 | 1019.5 |
| 20260902094024 | 21 | 184 | 0.0 | 1.6 | 0.00 | 0.25 | 0.00 | 100 | 1019.5 |
| 20260902093503 | 21 | 184 | 0.0 | 1.6 | 0.00 | 0.28 | 0.00 | 100 | 1019.5 |
| 20260902093003 | 21 | 184 | 0.0 | 1.6 | 0.00 | 0.28 | 0.00 | 100 | 1019.4 |
| 20260902092503 | 21 | 184 | 0.0 | 1.6 | 0.00 | 0.28 | 0.00 | 100 | 1019.5 |
| 20260902092003 | 21 | 184 | 0.0 | 1.6 | 0.00 | 0.28 | 0.00 | 100 | 1019.3 |
| 20260902091503 | 20 | 184 | 0.0 | 1.6 | 0.00 | 0.28 | 0.00 | 100 | 1019.4 |
| 20260902091003 | 20 | 184 | 0.0 | 1.6 | 0.00 | 0.28 | 0.00 | 100 | 1019.4 |
| 20260902090524 | 21 | 184 | 0.0 | 1.6 | 0.00 | 0.28 | 0.00 | 100 | 1019.4 |
| 20260902090004 | 21 | 184 | 0.0 | 1.6 | 0.00 | 0.28 | 0.00 | 100 | 1019.3 |
| 20260902085503 | 21 | 184 | 0.0 | 1.6 | 0.00 | 0.28 | 0.00 | 100 | 1019.4 |
| 20260902085003 | 21 | 184 | 0.0 | 1.6 | 0.00 | 0.28 | 0.00 | 100 | 1019.4 |
| 20260902084524 | 21 | 184 | 0.0 | 1.6 | 0.00 | 0.28 | 0.00 | 100 | 1019.5 |
| 20260902084003 | 20 | 184 | 0.0 | 1.6 | 0.00 | 0.28 | 0.00 | 100 | 1019.5 |
| 20260902083503 | 20 | 184 | 0.0 | 1.6 | 0.00 | 0.28 | 0.00 | 100 | 1019.4 |
| 20260902083003 | 20 | 184 | 0.0 | 1.6 | 0.00 | 0.28 | 0.00 | 100 | 1019.3 |
| 20260902082503 | 20 | 0 | 0.0 | 0.0 | 0.00 | 0.28 | 0.00 | 99 | 1019.3 |
| 20260902082003 | 20 | 149 | 0.0 | 9.7 | 0.00 | 0.28 | 0.00 | 99 | 1019.3 |
| 20260902081503 | 20 | 149 | 0.0 | 9.7 | 0.00 | 0.28 | 0.00 | 99 | 1019.1 |
| 20260902081003 | 20 | 147 | 0.0 | 1.6 | 0.00 | 0.28 | 0.00 | 99 | 1019.0 |
| 20260902080503 | 20 | 147 | 0.0 | 1.6 | 0.00 | 0.28 | 0.00 | 99 | 1019.1 |
| 20260902080003 | 20 | 147 | 0.0 | 1.6 | 0.00 | 0.28 | 0.00 | 99 | 1019.1 |
| 20260902075503 | 20 | 147 | 0.0 | 1.6 | 0.00 | 0.28 | 0.00 | 99 | 1019.1 |
| 20260902075003 | 20 | 147 | 0.0 | 1.6 | 0.00 | 0.28 | 0.00 | 99 | 1019.1 |
| 20260902074503 | 20 | 147 | 0.0 | 1.6 | 0.00 | 0.28 | 0.00 | 99 | 1019.1 |
| 20260902074003 | 20 | 147 | 0.0 | 1.6 | 0.00 | 0.28 | 0.00 | 99 | 1019.1 |
| 20260902073524 | 20 | 147 | 0.0 | 1.6 | 0.00 | 0.28 | 0.00 | 99 | 1019.2 |
| 20260902073003 | 20 | 0 | 0.0 | 0.0 | 0.00 | 0.28 | 0.00 | 99 | 1019.2 |
| 20260902072503 | 20 | 0 | 0.0 | 0.0 | 0.00 | 0.28 | 0.00 | 99 | 1019.3 |
| 20260902072003 | 20 | 0 | 0.0 | 0.0 | 0.00 | 0.28 | 0.00 | 99 | 1019.2 |
| 20260902071524 | 20 | 0 | 0.0 | 0.0 | 0.00 | 0.28 | 0.00 | 99 | 1019.2 |
| 20260902071003 | 20 | 147 | 0.0 | 1.6 | 0.00 | 0.28 | 0.00 | 99 | 1019.2 |
| 20260902070503 | 20 | 147 | 0.0 | 1.6 | 0.00 | 0.28 | 0.00 | 99 | 1019.1 |
| 20260902070004 | 20 | 0 | 0.0 | 0.0 | 0.00 | 0.28 | 0.00 | 99 | 1019.2 |
| 20260902065503 | 20 | 0 | 0.0 | 0.0 | 0.00 | 0.28 | 0.00 | 99 | 1019.2 |
| 20260902065003 | 20 | 0 | 0.0 | 0.0 | 0.00 | 0.28 | 0.00 | 99 | 1019.2 |
| 20260902064503 | 20 | 0 | 0.0 | 0.0 | 0.00 | 0.28 | 0.00 | 99 | 1019.3 |
| 20260902064003 | 20 | 147 | 0.0 | 1.6 | 0.00 | 0.28 | 0.00 | 99 | 1019.2 |
| 20260902063503 | 20 | 147 | 0.0 | 1.6 | 0.00 | 0.28 | 0.00 | 99 | 1019.2 |
| 20260902063003 | 20 | 0 | 0.0 | 0.0 | 0.00 | 0.28 | 0.00 | 99 | 1019.2 |
| 20260902062524 | 20 | 0 | 0.0 | 0.0 | 0.00 | 0.28 | 0.00 | 99 | 1019.2 |
| 20260902062003 | 20 | 0 | 0.0 | 0.0 | 0.00 | 0.28 | 0.00 | 99 | 1019.3 |
| 20260902061503 | 20 | 0 | 0.0 | 0.0 | 0.00 | 0.28 | 0.00 | 99 | 1019.2 |
| 20260902061003 | 21 | 147 | 0.0 | 1.6 | 0.00 | 0.28 | 0.00 | 99 | 1019.3 |
| 20260902060503 | 21 | 147 | 0.0 | 4.8 | 0.00 | 0.28 | 0.00 | 99 | 1019.3 |
| 20260902060003 | 21 | 147 | 0.0 | 4.8 | 0.00 | 0.28 | 0.00 | 99 | 1019.4 |
| 20260902055524 | 21 | 147 | 0.0 | 4.8 | 0.00 | 0.28 | 0.00 | 99 | 1019.3 |
| 20260902055003 | 21 | 147 | 0.0 | 1.6 | 0.00 | 0.28 | 0.00 | 99 | 1019.2 |
| 20260902054503 | 21 | 147 | 0.0 | 4.8 | 0.00 | 0.28 | 0.00 | 99 | 1019.2 |
| 20260902054003 | 21 | 147 | 0.0 | 4.8 | 0.00 | 0.28 | 0.00 | 99 | 1019.3 |
| 20260902053524 | 21 | 147 | 0.0 | 1.6 | 0.00 | 0.28 | 0.00 | 99 | 1019.4 |
| 20260902053003 | 21 | 147 | 0.0 | 1.6 | 0.00 | 0.28 | 0.00 | 99 | 1019.3 |
| 20260902052503 | 21 | 147 | 0.0 | 1.6 | 0.00 | 0.28 | 0.00 | 99 | 1019.3 |
| 20260902052003 | 21 | 0 | 0.0 | 0.0 | 0.00 | 0.28 | 0.00 | 99 | 1019.4 |
| 20260902051503 | 21 | 0 | 0.0 | 0.0 | 0.00 | 0.28 | 0.00 | 99 | 1019.4 |
| 20260902051024 | 21 | 0 | 0.0 | 0.0 | 0.00 | 0.28 | 0.00 | 99 | 1019.2 |
| 20260902050503 | 21 | 147 | 0.0 | 1.6 | 0.00 | 0.28 | 0.00 | 99 | 1019.2 |
| 20260902050024 | 21 | 147 | 0.0 | 1.6 | 0.00 | 0.28 | 0.00 | 99 | 1019.1 |
| 20260902045503 | 21 | 147 | 0.0 | 1.6 | 0.00 | 0.28 | 0.00 | 99 | 1019.2 |
| 20260902045003 | 21 | 147 | 1.6 | 4.8 | 0.00 | 0.28 | 0.00 | 99 | 1019.2 |
| 20260902044503 | 21 | 147 | 0.0 | 4.8 | 0.00 | 0.28 | 0.00 | 99 | 1019.4 |
| 20260902044024 | 21 | 147 | 0.0 | 1.6 | 0.00 | 0.28 | 0.00 | 99 | 1019.3 |
| 20260902043503 | 21 | 147 | 0.0 | 1.6 | 0.00 | 0.28 | 0.00 | 99 | 1019.3 |
| 20260902043024 | 21 | 147 | 0.0 | 1.6 | 0.00 | 0.28 | 0.00 | 99 | 1019.3 |
| 20260902042503 | 21 | 147 | 0.0 | 1.6 | 0.00 | 0.28 | 0.00 | 99 | 1019.2 |
| 20260902042003 | 21 | 147 | 0.0 | 1.6 | 0.00 | 0.28 | 0.00 | 99 | 1019.1 |
| 20260902041524 | 21 | 147 | 0.0 | 1.6 | 0.00 | 0.28 | 0.00 | 99 | 1019.0 |
| 20260902041003 | 21 | 0 | 0.0 | 0.0 | 0.00 | 0.28 | 0.00 | 99 | 1018.8 |
| 20260902040503 | 22 | 0 | 0.0 | 0.0 | 0.00 | 0.28 | 0.00 | 99 | 1018.7 |
| 20260902040004 | 22 | 147 | 0.0 | 1.6 | 0.00 | 0.28 | 0.00 | 99 | 1018.6 |
| 20260902035526 | 22 | 147 | 0.0 | 1.6 | 0.00 | 0.28 | 0.28 | 99 | 1018.6 |
| 20260902035005 | 22 | 147 | 0.0 | 1.6 | 0.00 | 0.28 | 0.28 | 99 | 1018.4 |
| 20260902034505 | 22 | 147 | 0.0 | 1.6 | 0.00 | 0.28 | 0.28 | 99 | 1018.3 |
| 20260902034005 | 22 | 147 | 0.0 | 1.6 | 0.00 | 0.28 | 0.28 | 99 | 1018.5 |
| 20260902033505 | 22 | 147 | 0.0 | 1.6 | 0.00 | 0.28 | 0.28 | 99 | 1018.5 |
| 20260902033005 | 22 | 147 | 0.0 | 1.6 | 0.00 | 0.28 | 0.28 | 99 | 1018.4 |
| 20260902032505 | 22 | 147 | 0.0 | 1.6 | 0.00 | 0.28 | 0.28 | 99 | 1018.4 |
| 20260902032026 | 22 | 147 | 0.0 | 1.6 | 0.00 | 0.28 | 0.28 | 99 | 1018.4 |
| 20260902031505 | 22 | 147 | 0.0 | 1.6 | 0.00 | 0.28 | 0.28 | 99 | 1018.3 |
| 20260902031005 | 22 | 147 | 1.6 | 1.6 | 0.00 | 0.28 | 0.28 | 99 | 1018.2 |
| 20260902030505 | 22 | 147 | 0.0 | 1.6 | 0.00 | 0.28 | 0.28 | 99 | 1018.0 |
| 20260902030026 | 22 | 147 | 0.0 | 1.6 | 0.00 | 0.28 | 0.28 | 99 | 1018.0 |
| 20260902025504 | 22 | 147 | 0.0 | 1.6 | 0.00 | 0.28 | 0.28 | 99 | 1017.9 |
| 20260902025005 | 22 | 147 | 0.0 | 1.6 | 0.00 | 0.28 | 0.28 | 99 | 1017.9 |
| 20260902024505 | 22 | 147 | 0.0 | 1.6 | 0.00 | 0.30 | 0.28 | 99 | 1017.8 |
| 20260902024005 | 22 | 147 | 0.0 | 1.6 | 0.00 | 0.30 | 0.28 | 99 | 1017.7 |
| 20260902023505 | 22 | 147 | 0.0 | 1.6 | 0.00 | 0.33 | 0.28 | 98 | 1017.8 |
| 20260902023005 | 22 | 0 | 0.0 | 0.0 | 0.00 | 0.33 | 0.28 | 98 | 1017.7 |
| 20260902022505 | 22 | 0 | 0.0 | 0.0 | 0.00 | 0.36 | 0.28 | 98 | 1017.6 |
| 20260902022005 | 22 | 0 | 0.0 | 0.0 | 0.00 | 0.36 | 0.28 | 98 | 1017.5 |
| 20260902021504 | 22 | 0 | 0.0 | 0.0 | 0.00 | 0.36 | 0.28 | 98 | 1017.6 |
| 20260902021026 | 22 | 0 | 0.0 | 0.0 | 0.00 | 0.36 | 0.28 | 98 | 1017.7 |
| 20260902020504 | 22 | 0 | 0.0 | 0.0 | 0.00 | 0.36 | 0.28 | 98 | 1017.7 |
| 20260902020005 | 22 | 0 | 0.0 | 0.0 | 0.00 | 0.36 | 0.28 | 98 | 1017.7 |
| 20260902015526 | 23 | 0 | 0.0 | 0.0 | 0.00 | 0.36 | 0.28 | 98 | 1017.7 |
| 20260902015005 | 23 | 0 | 0.0 | 0.0 | 0.00 | 0.36 | 0.28 | 98 | 1017.6 |
| 20260902014505 | 23 | 0 | 0.0 | 0.0 | 0.00 | 0.36 | 0.28 | 98 | 1017.6 |
| 20260902014005 | 23 | 147 | 0.0 | 1.6 | 0.00 | 0.36 | 0.28 | 99 | 1017.6 |
| 20260902013505 | 23 | 147 | 0.0 | 1.6 | 0.00 | 0.36 | 0.28 | 98 | 1017.6 |
| 20260902013005 | 23 | 147 | 0.0 | 1.6 | 0.00 | 0.36 | 0.28 | 98 | 1017.6 |
| 20260902012526 | 23 | 147 | 0.0 | 1.6 | 0.00 | 0.36 | 0.28 | 98 | 1017.7 |
| 20260902012005 | 23 | 147 | 0.0 | 4.8 | 0.00 | 0.36 | 0.28 | 98 | 1017.7 |
| 20260902011505 | 23 | 154 | 1.6 | 4.8 | 0.00 | 0.36 | 0.28 | 98 | 1017.8 |
| 20260902011005 | 23 | 162 | 0.0 | 6.4 | 0.00 | 0.36 | 0.28 | 98 | 1017.8 |
| 20260902010526 | 23 | 171 | 0.0 | 6.4 | 0.00 | 0.36 | 0.28 | 98 | 1017.7 |
| 20260902010005 | 23 | 0 | 0.0 | 0.0 | 0.00 | 0.36 | 0.28 | 98 | 1017.8 |
| 20260902005504 | 23 | 0 | 0.0 | 0.0 | 0.00 | 0.36 | 0.28 | 97 | 1017.7 |
| 20260902005004 | 23 | 0 | 0.0 | 0.0 | 0.00 | 0.36 | 0.28 | 97 | 1017.6 |
| 20260902004525 | 23 | 0 | 0.0 | 0.0 | 0.00 | 0.36 | 0.28 | 98 | 1017.4 |
| 20260902004004 | 23 | 0 | 0.0 | 0.0 | 0.00 | 0.36 | 0.28 | 98 | 1017.0 |
| 20260902003504 | 23 | 0 | 0.0 | 0.0 | 0.00 | 0.36 | 0.28 | 98 | 1016.9 |
| 20260902003026 | 23 | 0 | 0.0 | 0.0 | 0.00 | 0.36 | 0.28 | 97 | 1016.7 |
| 20260902002526 | 23 | 0 | 0.0 | 0.0 | 0.00 | 0.36 | 0.28 | 97 | 1016.5 |
| 20260902002004 | 23 | 0 | 0.0 | 0.0 | 0.00 | 0.36 | 0.28 | 97 | 1016.4 |
| 20260902001504 | 23 | 0 | 0.0 | 0.0 | 0.00 | 0.36 | 0.28 | 97 | 1016.2 |
| 20260902001005 | 23 | 0 | 0.0 | 0.0 | 0.00 | 0.36 | 0.28 | 97 | 1016.3 |
| 20260902000526 | 23 | 0 | 0.0 | 0.0 | 0.00 | 0.36 | 0.28 | 97 | 1016.1 |
| 20260902000026 | 23 | 0 | 0.0 | 0.0 | 0.00 | 0.36 | 0.28 | 97 | 1016.3 |
| 20260901235504 | 23 | 0 | 0.0 | 0.0 | 0.00 | 0.36 | 0.28 | 97 | 1016.2 |
| 20260901235025 | 23 | 0 | 0.0 | 0.0 | 0.00 | 0.36 | 0.28 | 96 | 1016.5 |
| 20260901234504 | 23 | 0 | 0.0 | 0.0 | 0.00 | 0.36 | 0.28 | 96 | 1016.4 |
| 20260901234004 | 23 | 0 | 0.0 | 0.0 | 0.00 | 0.36 | 0.28 | 96 | 1016.4 |
| 20260901233525 | 23 | 0 | 0.0 | 0.0 | 0.00 | 0.36 | 0.28 | 96 | 1016.6 |
| 20260901233005 | 23 | 0 | 0.0 | 0.0 | 0.00 | 0.36 | 0.28 | 96 | 1016.7 |
| 20260901232525 | 23 | 0 | 0.0 | 0.0 | 0.00 | 0.36 | 0.28 | 95 | 1016.6 |
| 20260901232026 | 24 | 0 | 0.0 | 0.0 | 0.00 | 0.36 | 0.28 | 95 | 1016.6 |
| 20260901231504 | 24 | 0 | 0.0 | 0.0 | 0.00 | 0.36 | 0.28 | 95 | 1016.4 |
| 20260901231004 | 24 | 0 | 0.0 | 0.0 | 0.00 | 0.36 | 0.28 | 95 | 1016.4 |
| 20260901230504 | 24 | 0 | 0.0 | 0.0 | 0.00 | 0.36 | 0.28 | 96 | 1016.6 |
| 20260901230005 | 24 | 0 | 0.0 | 0.0 | 0.00 | 0.36 | 0.28 | 95 | 1016.5 |
| 20260901225525 | 24 | 0 | 0.0 | 0.0 | 0.00 | 0.36 | 0.28 | 95 | 1016.5 |
| 20260901225004 | 24 | 0 | 0.0 | 0.0 | 0.00 | 0.36 | 0.28 | 95 | 1016.7 |
| 20260901224504 | 24 | 0 | 0.0 | 0.0 | 0.00 | 0.36 | 0.28 | 95 | 1017.0 |
| 20260901224025 | 24 | 300 | 0.0 | 1.6 | 0.00 | 0.36 | 0.28 | 95 | 1016.8 |
| 20260901223504 | 24 | 300 | 0.0 | 1.6 | 0.00 | 0.36 | 0.28 | 95 | 1016.7 |
| 20260901223005 | 24 | 300 | 0.0 | 1.6 | 0.00 | 0.36 | 0.28 | 94 | 1016.9 |
| 20260901222505 | 24 | 300 | 0.0 | 1.6 | 0.00 | 0.36 | 0.28 | 94 | 1017.0 |
| 20260901222005 | 24 | 300 | 0.0 | 1.6 | 0.00 | 0.36 | 0.28 | 94 | 1016.8 |
| 20260901221504 | 24 | 300 | 0.0 | 1.6 | 0.00 | 0.36 | 0.28 | 95 | 1016.7 |
| 20260901221025 | 24 | 305 | 0.0 | 1.6 | 0.00 | 0.36 | 0.28 | 95 | 1016.4 |
| 20260901220525 | 25 | 312 | 0.0 | 1.6 | 0.00 | 0.36 | 0.28 | 94 | 1016.2 |
| 20260901220004 | 25 | 312 | 0.0 | 1.6 | 0.00 | 0.36 | 0.28 | 94 | 1015.7 |
| 20260901215504 | 25 | 312 | 0.0 | 1.6 | 0.00 | 0.36 | 0.28 | 94 | 1015.7 |
| 20260901215004 | 25 | 318 | 0.0 | 1.6 | 0.00 | 0.38 | 0.28 | 94 | 1015.8 |
| 20260901214504 | 25 | 328 | 0.0 | 1.6 | 0.00 | 0.38 | 0.28 | 94 | 1015.8 |
| 20260901214025 | 25 | 0 | 0.0 | 0.0 | 0.00 | 0.38 | 0.28 | 93 | 1015.6 |
| 20260901213504 | 25 | 5 | 0.0 | 1.6 | 0.00 | 0.43 | 0.28 | 94 | 1015.7 |
| 20260901213004 | 25 | 5 | 0.0 | 1.6 | 0.00 | 0.58 | 0.28 | 94 | 1015.8 |
| 20260901212504 | 25 | 5 | 0.0 | 1.6 | 0.00 | 0.61 | 0.28 | 93 | 1015.8 |
| 20260901212004 | 25 | 0 | 0.0 | 0.0 | 0.00 | 0.61 | 0.28 | 93 | 1015.8 |
| 20260901211525 | 25 | 5 | 0.0 | 1.6 | 0.00 | 0.61 | 0.28 | 94 | 1015.9 |
| 20260901211004 | 25 | 355 | 0.0 | 4.8 | 0.00 | 0.61 | 0.28 | 93 | 1016.1 |
| 20260901210504 | 25 | 20 | 0.0 | 4.8 | 0.00 | 0.61 | 0.28 | 93 | 1016.2 |
| 20260901210004 | 25 | 33 | 1.6 | 9.7 | 0.00 | 0.61 | 0.28 | 93 | 1015.8 |
| 20260901205504 | 25 | 22 | 1.6 | 9.7 | 0.00 | 0.61 | 0.28 | 92 | 1015.7 |
| 20260901205004 | 25 | 16 | 0.0 | 4.8 | 0.00 | 0.61 | 0.28 | 93 | 1015.6 |
| 20260901204504 | 25 | 23 | 0.0 | 4.8 | 0.00 | 0.61 | 0.28 | 93 | 1015.6 |
| 20260901204004 | 26 | 355 | 0.0 | 1.6 | 0.00 | 0.61 | 0.28 | 92 | 1015.8 |
| 20260901203504 | 26 | 348 | 0.0 | 4.8 | 0.00 | 0.61 | 0.28 | 91 | 1015.8 |
| 20260901203004 | 26 | 345 | 0.0 | 4.8 | 0.00 | 0.61 | 0.28 | 91 | 1015.8 |
| 20260901202504 | 26 | 15 | 0.0 | 4.8 | 0.00 | 0.61 | 0.28 | 90 | 1015.9 |
| 20260901202004 | 26 | 24 | 0.0 | 4.8 | 0.00 | 0.61 | 0.28 | 89 | 1016.0 |
| 20260901201504 | 27 | 10 | 0.0 | 4.8 | 0.00 | 0.61 | 0.28 | 89 | 1016.0 |
| 20260901201004 | 27 | 345 | 0.0 | 1.6 | 0.00 | 0.61 | 0.28 | 88 | 1016.0 |
| 20260901200504 | 27 | 345 | 0.0 | 1.6 | 0.00 | 0.61 | 0.28 | 87 | 1016.0 |
| 20260901200004 | 27 | 345 | 0.0 | 1.6 | 0.00 | 0.61 | 0.28 | 85 | 1016.1 |
| 20260901195504 | 27 | 345 | 0.0 | 1.6 | 0.00 | 0.61 | 0.28 | 85 | 1015.9 |
| 20260901195025 | 28 | 348 | 0.0 | 4.8 | 0.00 | 0.61 | 0.28 | 85 | 1016.0 |
| 20260901194525 | 28 | 1 | 0.0 | 4.8 | 0.00 | 0.61 | 0.28 | 82 | 1016.1 |
| 20260901194004 | 28 | 6 | 0.0 | 1.6 | 0.00 | 0.61 | 0.28 | 83 | 1016.2 |
| 20260901193504 | 28 | 328 | 0.0 | 4.8 | 0.00 | 0.61 | 0.28 | 84 | 1016.2 |
| 20260901193004 | 28 | 177 | 1.6 | 9.7 | 0.00 | 0.61 | 0.28 | 81 | 1016.1 |
| 20260901192504 | 28 | 166 | 1.6 | 9.7 | 0.00 | 0.61 | 0.28 | 85 | 1016.2 |
| 20260901192004 | 28 | 259 | 0.0 | 6.4 | 0.00 | 0.61 | 0.28 | 84 | 1016.3 |
| 20260901191504 | 28 | 296 | 0.0 | 4.8 | 0.00 | 0.61 | 0.28 | 80 | 1016.2 |
| 20260901191025 | 28 | 152 | 0.0 | 4.8 | 0.00 | 0.61 | 0.28 | 83 | 1016.3 |
| 20260901190504 | 28 | 101 | 0.0 | 1.6 | 0.00 | 0.61 | 0.28 | 86 | 1016.3 |
| 20260901190025 | 28 | 57 | 0.0 | 1.6 | 0.00 | 0.61 | 0.28 | 85 | 1016.4 |
| 20260901185504 | 28 | 158 | 0.0 | 4.8 | 0.00 | 0.61 | 0.28 | 87 | 1016.3 |
| 20260901185004 | 28 | 140 | 1.6 | 6.4 | 0.00 | 0.61 | 0.28 | 83 | 1016.4 |
| 20260901184504 | 28 | 132 | 1.6 | 6.4 | 0.00 | 0.61 | 0.28 | 85 | 1016.4 |
| 20260901184004 | 27 | 180 | 1.6 | 11.3 | 0.00 | 0.64 | 0.28 | 86 | 1016.4 |
| 20260901183504 | 27 | 172 | 4.8 | 11.3 | 0.00 | 0.64 | 0.28 | 88 | 1016.4 |
| 20260901183004 | 27 | 165 | 1.6 | 9.7 | 0.00 | 0.64 | 0.28 | 88 | 1016.4 |
| 20260901182525 | 26 | 160 | 1.6 | 11.3 | 0.00 | 0.64 | 0.28 | 89 | 1016.4 |
| 20260901182004 | 26 | 163 | 1.6 | 11.3 | 0.00 | 0.66 | 0.28 | 93 | 1016.4 |
| 20260901181504 | 26 | 179 | 0.0 | 4.8 | 0.00 | 0.69 | 0.28 | 91 | 1016.4 |
| 20260901181004 | 26 | 158 | 1.6 | 9.7 | 0.00 | 0.71 | 0.28 | 91 | 1016.5 |
| 20260901180504 | 25 | 157 | 1.6 | 9.7 | 0.00 | 0.76 | 0.28 | 93 | 1016.5 |
| 20260901180004 | 25 | 192 | 0.0 | 1.6 | 0.00 | 0.79 | 0.28 | 93 | 1016.4 |
| 20260901175504 | 25 | 163 | 1.6 | 9.7 | 0.00 | 0.81 | 0.28 | 92 | 1016.4 |
| 20260901175004 | 25 | 157 | 1.6 | 9.7 | 0.00 | 0.86 | 0.28 | 94 | 1016.3 |
| 20260901174525 | 25 | 164 | 1.6 | 9.7 | 0.00 | 0.91 | 0.28 | 95 | 1016.3 |
| 20260901174005 | 25 | 179 | 1.6 | 9.7 | 0.00 | 0.91 | 0.28 | 94 | 1016.4 |
| 20260901173504 | 25 | 174 | 1.6 | 9.7 | 0.00 | 0.91 | 0.28 | 97 | 1016.4 |
| 20260901173025 | 24 | 182 | 1.6 | 6.4 | 0.00 | 0.94 | 0.28 | 98 | 1016.4 |
| 20260901172504 | 24 | 178 | 1.6 | 9.7 | 0.00 | 0.94 | 0.28 | 97 | 1016.3 |
| 20260901172004 | 24 | 173 | 1.6 | 9.7 | 0.00 | 0.94 | 0.28 | 97 | 1016.4 |
| 20260901171504 | 24 | 300 | 0.0 | 1.6 | 0.00 | 0.94 | 0.28 | 97 | 1016.7 |
| 20260901171004 | 24 | 281 | 0.0 | 4.8 | 0.00 | 0.97 | 0.28 | 98 | 1016.6 |
| 20260901170504 | 24 | 280 | 0.0 | 4.8 | 0.00 | 0.97 | 0.28 | 98 | 1016.7 |
| 20260901170025 | 24 | 263 | 0.0 | 1.6 | 0.00 | 0.97 | 0.28 | 99 | 1016.5 |
| 20260901165504 | 23 | 241 | 0.0 | 4.8 | 0.00 | 0.97 | 0.28 | 99 | 1016.5 |
| 20260901165004 | 23 | 208 | 0.0 | 4.8 | 0.00 | 0.97 | 0.28 | 99 | 1016.5 |
| 20260901164525 | 23 | 135 | 0.0 | 1.6 | 0.00 | 0.97 | 0.28 | 99 | 1016.7 |
| 20260901164025 | 23 | 118 | 0.0 | 4.8 | 0.00 | 0.97 | 0.28 | 99 | 1016.7 |
| 20260901163504 | 23 | 112 | 0.0 | 4.8 | 0.00 | 0.97 | 0.28 | 99 | 1016.7 |
| 20260901163004 | 23 | 120 | 0.0 | 1.6 | 0.00 | 0.97 | 0.28 | 99 | 1016.9 |
| 20260901162504 | 23 | 152 | 0.0 | 6.4 | 0.00 | 0.97 | 0.28 | 100 | 1016.9 |
| 20260901162025 | 23 | 162 | 1.6 | 6.4 | 0.00 | 0.97 | 0.28 | 100 | 1016.9 |
| 20260901161504 | 23 | 159 | 1.6 | 6.4 | 0.00 | 0.97 | 0.28 | 100 | 1017.0 |
| 20260901161004 | 23 | 169 | 1.6 | 11.3 | 0.00 | 0.97 | 0.28 | 100 | 1016.9 |
| 20260901160504 | 23 | 175 | 1.6 | 11.3 | 0.00 | 0.97 | 0.28 | 100 | 1017.0 |
| 20260901160004 | 23 | 166 | 1.6 | 4.8 | 0.00 | 0.97 | 0.28 | 100 | 1017.1 |
| 20260901155504 | 23 | 173 | 1.6 | 4.8 | 0.00 | 0.97 | 0.28 | 100 | 1017.1 |
| 20260901155004 | 23 | 188 | 1.6 | 4.8 | 0.00 | 0.97 | 0.28 | 100 | 1017.0 |
| 20260901154504 | 22 | 163 | 1.6 | 14.5 | 0.00 | 0.97 | 0.28 | 100 | 1017.1 |
| 20260901154004 | 22 | 158 | 1.6 | 14.5 | 0.00 | 0.97 | 0.28 | 100 | 1017.2 |
| 20260901153504 | 22 | 163 | 1.6 | 11.3 | 0.00 | 0.97 | 0.28 | 100 | 1017.2 |
| 20260901153004 | 22 | 216 | 1.6 | 6.4 | 0.00 | 0.97 | 0.28 | 100 | 1017.2 |
| 20260901152504 | 22 | 255 | 0.0 | 6.4 | 0.00 | 0.97 | 0.28 | 100 | 1017.3 |
| 20260901152025 | 22 | 163 | 0.0 | 6.4 | 0.00 | 0.97 | 0.28 | 100 | 1017.3 |
| 20260901151504 | 22 | 165 | 1.6 | 6.4 | 0.00 | 0.97 | 0.28 | 100 | 1017.2 |
| 20260901151004 | 22 | 172 | 1.6 | 9.7 | 0.00 | 0.97 | 0.28 | 100 | 1017.2 |
| 20260901150504 | 22 | 161 | 1.6 | 9.7 | 0.00 | 0.97 | 0.28 | 100 | 1017.2 |
| 20260901150004 | 22 | 145 | 1.6 | 6.4 | 0.00 | 0.97 | 0.28 | 100 | 1017.2 |
| 20260901145504 | 22 | 150 | 1.6 | 6.4 | 0.00 | 0.97 | 0.28 | 100 | 1017.3 |
| 20260901145004 | 22 | 171 | 0.0 | 9.7 | 0.00 | 0.97 | 0.28 | 100 | 1017.3 |
| 20260901144504 | 21 | 169 | 1.6 | 9.7 | 0.00 | 0.97 | 0.28 | 100 | 1017.3 |
| 20260901144025 | 21 | 163 | 1.6 | 4.8 | 0.00 | 0.97 | 0.28 | 100 | 1017.3 |
| 20260901143504 | 21 | 144 | 1.6 | 9.7 | 0.00 | 0.97 | 0.28 | 100 | 1017.3 |
| 20260901143025 | 21 | 146 | 1.6 | 9.7 | 0.00 | 0.97 | 0.28 | 100 | 1017.3 |
| 20260901142525 | 21 | 160 | 0.0 | 4.8 | 0.00 | 0.97 | 0.28 | 100 | 1017.3 |
| 20260901142004 | 21 | 160 | 0.0 | 4.8 | 0.00 | 0.97 | 0.28 | 100 | 1017.4 |
| 20260901141504 | 21 | 160 | 1.6 | 4.8 | 0.00 | 0.97 | 0.28 | 100 | 1017.4 |
| 20260901141025 | 21 | 160 | 1.6 | 4.8 | 0.00 | 0.97 | 0.28 | 100 | 1017.4 |
| 20260901140525 | 21 | 160 | 1.6 | 4.8 | 0.08 | 0.97 | 0.28 | 100 | 1017.5 |
| 20260901140025 | 21 | 158 | 1.6 | 9.7 | 0.10 | 0.97 | 0.28 | 100 | 1017.6 |
| 20260901135504 | 21 | 147 | 0.0 | 9.7 | 0.20 | 0.97 | 0.28 | 100 | 1017.6 |
| 20260901135025 | 21 | 133 | 0.0 | 4.8 | 0.23 | 0.97 | 0.28 | 100 | 1017.6 |
| 20260901134525 | 21 | 170 | 1.6 | 6.4 | 0.23 | 0.97 | 0.28 | 100 | 1017.5 |
| 20260901134004 | 21 | 175 | 1.6 | 9.7 | 0.23 | 0.97 | 0.28 | 100 | 1017.3 |
| 20260901133505 | 21 | 171 | 1.6 | 9.7 | 0.23 | 0.97 | 0.28 | 100 | 1017.3 |
| 20260901133004 | 21 | 178 | 0.0 | 4.8 | 0.23 | 0.97 | 0.28 | 100 | 1017.3 |
| 20260901132504 | 21 | 0 | 0.0 | 0.0 | 0.23 | 0.97 | 0.28 | 100 | 1017.2 |
| 20260901132004 | 21 | 0 | 0.0 | 0.0 | 0.23 | 0.97 | 0.28 | 100 | 1017.2 |
| 20260901131525 | 21 | 0 | 0.0 | 0.0 | 0.23 | 0.97 | 0.28 | 100 | 1017.2 |
| 20260901131004 | 21 | 0 | 0.0 | 0.0 | 0.23 | 0.97 | 0.28 | 100 | 1017.4 |
| 20260901130504 | 21 | 0 | 0.0 | 0.0 | 0.18 | 0.89 | 0.20 | 100 | 1017.6 |
| 20260901130004 | 21 | 0 | 0.0 | 0.0 | 0.15 | 0.86 | 0.18 | 100 | 1017.6 |
| 20260901125504 | 21 | 0 | 0.0 | 0.0 | 0.05 | 0.76 | 0.08 | 100 | 1017.7 |
| 20260901125004 | 21 | 0 | 0.0 | 0.0 | 0.03 | 0.74 | 0.05 | 100 | 1017.6 |
| 20260901124505 | 21 | 0 | 0.0 | 0.0 | 0.03 | 0.74 | 0.05 | 100 | 1017.4 |
| 20260901124004 | 21 | 0 | 0.0 | 0.0 | 0.03 | 0.74 | 0.05 | 100 | 1017.6 |
| 20260901123504 | 21 | 0 | 0.0 | 0.0 | 0.03 | 0.74 | 0.05 | 100 | 1017.6 |
| 20260901123025 | 20 | 0 | 0.0 | 0.0 | 0.03 | 0.74 | 0.05 | 100 | 1017.5 |
| 20260901122504 | 20 | 0 | 0.0 | 0.0 | 0.03 | 0.74 | 0.05 | 100 | 1017.5 |
| 20260901122004 | 20 | 0 | 0.0 | 0.0 | 0.03 | 0.74 | 0.05 | 100 | 1017.6 |
| 20260901121503 | 20 | 0 | 0.0 | 0.0 | 0.03 | 0.74 | 0.05 | 100 | 1017.8 |
| 20260901121004 | 20 | 0 | 0.0 | 0.0 | 0.03 | 0.74 | 0.05 | 100 | 1017.6 |
| 20260901120503 | 20 | 0 | 0.0 | 0.0 | 0.00 | 0.71 | 0.03 | 100 | 1017.6 |
| 20260901120004 | 20 | 0 | 0.0 | 0.0 | 0.00 | 0.71 | 0.03 | 100 | 1017.5 |
| 20260901115504 | 20 | 0 | 0.0 | 0.0 | 0.00 | 0.71 | 0.03 | 100 | 1017.4 |
| 20260901115025 | 20 | 0 | 0.0 | 0.0 | 0.00 | 0.71 | 0.03 | 100 | 1017.3 |
| 20260901114504 | 20 | 0 | 0.0 | 0.0 | 0.00 | 0.71 | 0.03 | 100 | 1017.2 |
| 20260901114004 | 20 | 0 | 0.0 | 0.0 | 0.00 | 0.71 | 0.03 | 100 | 1017.6 |
| 20260901113525 | 20 | 0 | 0.0 | 0.0 | 0.00 | 0.71 | 0.03 | 100 | 1017.5 |
| 20260901113004 | 20 | 0 | 0.0 | 0.0 | 0.00 | 0.71 | 0.03 | 100 | 1017.6 |
| 20260901112503 | 20 | 0 | 0.0 | 0.0 | 0.00 | 0.71 | 0.03 | 100 | 1017.4 |
| 20260901112004 | 20 | 0 | 0.0 | 0.0 | 0.00 | 0.71 | 0.03 | 100 | 1017.4 |
| 20260901111504 | 20 | 0 | 0.0 | 0.0 | 0.00 | 0.71 | 0.03 | 100 | 1017.4 |
| 20260901111004 | 20 | 0 | 0.0 | 0.0 | 0.00 | 0.71 | 0.03 | 100 | 1017.4 |
| 20260901110504 | 20 | 0 | 0.0 | 0.0 | 0.00 | 0.71 | 0.03 | 100 | 1017.4 |
| 20260901110004 | 20 | 0 | 0.0 | 0.0 | 0.00 | 0.71 | 0.03 | 100 | 1017.4 |
| 20260901105504 | 20 | 0 | 0.0 | 0.0 | 0.00 | 0.71 | 0.03 | 100 | 1017.3 |
| 20260901105004 | 20 | 0 | 0.0 | 0.0 | 0.00 | 0.71 | 0.03 | 100 | 1017.3 |
| 20260901104504 | 20 | 0 | 0.0 | 0.0 | 0.00 | 0.71 | 0.03 | 100 | 1017.2 |
| 20260901104003 | 20 | 0 | 0.0 | 0.0 | 0.00 | 0.71 | 0.03 | 100 | 1017.2 |
| 20260901103503 | 20 | 0 | 0.0 | 0.0 | 0.03 | 0.71 | 0.03 | 100 | 1017.0 |
| 20260901103025 | 20 | 0 | 0.0 | 0.0 | 0.03 | 0.71 | 0.03 | 100 | 1017.2 |